Hourly Data Report for September 09, 2017

All times are specified in Local Standard Time (LST). Add 1 hour to adjust for Daylight Saving Time where and when it is observed.

MONCTON INTL A
NEW BRUNSWICK

46°06'44.000" N
64°40'43.000" W
70.70 m
8103201
71705
YQM

Download Data

Hourly Data (September 2017)
Hourly Data Report for September 9, 2017
Temp Definition
°C
Dew Point Temp Definition
°C
Rel Hum Definition
%
Wind Dir Definition
10's deg

Wind Spd Definition
km/h
Visibility Definition
km
Stn Press Definition
kPa
Hmdx Definition


Wind Chill Definition


Weather Definition


TIME
00:00 Legend Double Dagger 11.7 9.4 86 29 5 24.1 101.04     LegendNANA
01:00 Legend Double Dagger 11.2 9.7 90 22 7 24.1 101.02     LegendNANA
02:00 Legend Double Dagger 10.5 9.0 90 18 10 24.1 101.04     Mainly Clear
03:00 Legend Double Dagger 9.6 8.7 94 19 6 24.1 101.04     LegendNANA
04:00 Legend Double Dagger 10.1 9.7 98 23 7 2.4 101.06     Fog
05:00 Legend Double Dagger 8.9 8.5 98 23 9 0.6 101.07     Fog
06:00 Legend Double Dagger 7.8 7.4 98 20 7 24.1 101.13     LegendNANA
07:00 Legend Double Dagger 9.2 8.4 94 22 11 24.1 101.22     LegendNANA
08:00 Legend Double Dagger 10.7 9.2 90 22 15 24.1 101.27     Mainly Clear
09:00 Legend Double Dagger 12.6 10.7 88 24 9 24.1 101.28     LegendNANA
10:00 Legend Double Dagger 15.0 12.6 85 23 6 24.1 101.32     LegendNANA
11:00 Legend Double Dagger 18.1 13.9 77 24 5 24.1 101.28     Mainly Clear
12:00 Legend Double Dagger 17.7 13.7 77 36 19 24.1 101.27     LegendNANA
13:00 Legend Double Dagger 18.2 13.3 73 1 22 24.1 101.27     LegendNANA
14:00 Legend Double Dagger 17.2 13.2 78 2 28 24.1 101.29     Mostly Cloudy
15:00 Legend Double Dagger 16.4 13.4 82 35 22 24.1 101.31     LegendNANA
16:00 Legend Double Dagger 18.3 14.4 78 36 18 24.1 101.28     LegendNANA
17:00 Legend Double Dagger 17.1 13.8 81 2 19 24.1 101.31     Mostly Cloudy
18:00 Legend Double Dagger 15.6 13.3 86 1 17 24.1 101.34     LegendNANA
19:00 Legend Double Dagger 14.6 13.2 91 35 17 24.1 101.36     LegendNANA
20:00 Legend Double Dagger 13.3 12.5 95 35 17 24.1 101.42     Mainly Clear
21:00 Legend Double Dagger 13.0 12.5 97 35 16 24.1 101.44     LegendNANA
22:00 Legend Double Dagger 12.5 12.1 97 35 16 24.1 101.48     LegendNANA
23:00 Legend Double Dagger 12.3 11.8 97 36 15 24.1 101.46     Mostly Cloudy

Notes on Data Quality.

Legend

  • E = Estimated
  • M = Missing
  • NA = Not Available
  • ‡ = Partner data that is not subject to review by the National Climate Archives
Date modified: